owner,sensor,date,latitude,longitude,vertical_datum,direction_of_sea_water_velocity,sea_water_speed,upward_sea_water_velocity,qcFlag 
TABS,ioos:station:wmo:42048:1,2007-06-01T00:00:00Z,27.9396,-96.8429,2.0,263.3643244,48.03172493,-99999.0,'11111222,11111222,99999999' 
TABS,ioos:station:wmo:42048:1,2007-06-01T00:30:00Z,27.9396,-96.8429,2.0,265.5965309,40.37917285,-99999.0,'11111222,11111222,99999999' 
TABS,ioos:station:wmo:42048:1,2007-06-01T01:00:00Z,27.9396,-96.8429,2.0,262.5779164,25.39273124,-99999.0,'11111222,11111222,99999999' 
TABS,ioos:station:wmo:42048:1,2007-06-01T01:30:00Z,27.9396,-96.8429,2.0,262.9302371,44.68973596,-99999.0,'11111222,11111222,99999999' 
TABS,ioos:station:wmo:42048:1,2007-06-01T02:00:00Z,27.9396,-96.8429,2.0,257.1331989,40.86606905,-99999.0,'11111222,11111222,99999999' 
TABS,ioos:station:wmo:42048:1,2007-06-01T02:30:00Z,27.9396,-96.8429,2.0,247.3820061,39.36769234,-99999.0,'11111222,11111222,99999999' 
TABS,ioos:station:wmo:42048:1,2007-06-01T03:00:00Z,27.9396,-96.8429,2.0,243.0793908,40.39758037,-99999.0,'11111222,11111222,99999999' 
TABS,ioos:station:wmo:42048:1,2007-06-01T03:30:00Z,27.9396,-96.8429,2.0,248.619279,38.15585145,-99999.0,'11111222,11111222,99999999' 
TABS,ioos:station:wmo:42048:1,2007-06-01T04:00:00Z,27.9396,-96.8429,2.0,241.843643,37.53121634,-99999.0,'11111222,11111222,99999999' 
TABS,ioos:station:wmo:42048:1,2007-06-01T04:30:00Z,27.9396,-96.8429,2.0,244.338851,36.55531972,-99999.0,'11111222,11111222,99999999' 
TABS,ioos:station:wmo:42048:1,2007-06-01T05:00:00Z,27.9396,-96.8429,2.0,239.7432127,35.84250549,-99999.0,'11111222,11111222,99999999' 
TABS,ioos:station:wmo:42048:1,2007-06-01T05:30:00Z,27.9396,-96.8429,2.0,237.9283934,37.79848939,-99999.0,'11111222,11111222,99999999' 
TABS,ioos:station:wmo:42048:1,2007-06-01T06:00:00Z,27.9396,-96.8429,2.0,238.0685612,34.33548019,-99999.0,'11111222,11111222,99999999' 
TABS,ioos:station:wmo:42048:1,2007-06-01T06:30:00Z,27.9396,-96.8429,2.0,244.5971884,34.38438745,-99999.0,'11111222,11111222,99999999' 
TABS,ioos:station:wmo:42048:1,2007-06-01T07:00:00Z,27.9396,-96.8429,2.0,239.9550277,34.852997,-99999.0,'11111222,11111222,99999999' 
TABS,ioos:station:wmo:42048:1,2007-06-01T07:30:00Z,27.9396,-96.8429,2.0,240.0411879,32.94137368,-99999.0,'11111222,11111222,99999999' 
TABS,ioos:station:wmo:42048:1,2007-06-01T08:00:00Z,27.9396,-96.8429,2.0,239.7198056,33.47719373,-99999.0,'11111222,11111222,99999999' 
TABS,ioos:station:wmo:42048:1,2007-06-01T08:30:00Z,27.9396,-96.8429,2.0,238.9227049,32.12003269,-99999.0,'11111222,11111222,99999999' 
TABS,ioos:station:wmo:42048:1,2007-06-01T09:00:00Z,27.9396,-96.8429,2.0,235.7929196,33.83254055,-99999.0,'11111222,11111222,99999999' 
TABS,ioos:station:wmo:42048:1,2007-06-01T09:30:00Z,27.9396,-96.8429,2.0,236.0035218,34.26709354,-99999.0,'11111222,11111222,99999999' 
TABS,ioos:station:wmo:42048:1,2007-06-01T10:00:00Z,27.9396,-96.8429,2.0,235.0223151,35.18519291,-99999.0,'11111222,11111222,99999999' 
TABS,ioos:station:wmo:42048:1,2007-06-01T10:30:00Z,27.9396,-96.8429,2.0,237.2614553,34.72625088,-99999.0,'11111222,11111222,99999999' 
TABS,ioos:station:wmo:42048:1,2007-06-01T11:00:00Z,27.9396,-96.8429,2.0,229.9929282,32.09008102,-99999.0,'11111222,11111222,99999999' 
TABS,ioos:station:wmo:42048:1,2007-06-01T11:30:00Z,27.9396,-96.8429,2.0,241.9312345,33.06941185,-99999.0,'11111222,11111222,99999999' 
TABS,ioos:station:wmo:42048:1,2007-06-01T12:00:00Z,27.9396,-96.8429,2.0,239.370666,31.99360717,-99999.0,'11111222,11111222,99999999' 
TABS,ioos:station:wmo:42048:1,2007-06-01T12:30:00Z,27.9396,-96.8429,2.0,230.7863601,34.43479781,-99999.0,'11111222,11111222,99999999' 
TABS,ioos:station:wmo:42048:1,2007-06-01T13:00:00Z,27.9396,-96.8429,2.0,236.234274,31.64844704,-99999.0,'11111222,11111222,99999999' 
TABS,ioos:station:wmo:42048:1,2007-06-01T13:30:00Z,27.9396,-96.8429,2.0,242.3455161,29.64667266,-99999.0,'11111222,11111222,99999999' 
TABS,ioos:station:wmo:42048:1,2007-06-01T14:00:00Z,27.9396,-96.8429,2.0,239.3223708,30.18412828,-99999.0,'11111222,11111222,99999999' 
TABS,ioos:station:wmo:42048:1,2007-06-01T14:30:00Z,27.9396,-96.8429,2.0,242.4903313,31.47916771,-99999.0,'11111222,11111222,99999999' 
TABS,ioos:station:wmo:42048:1,2007-06-01T15:00:00Z,27.9396,-96.8429,2.0,240.9794917,30.69361008,-99999.0,'11111222,11111222,99999999' 
TABS,ioos:station:wmo:42048:1,2007-06-01T15:30:00Z,27.9396,-96.8429,2.0,241.3589551,30.25148757,-99999.0,'11111222,11111222,99999999' 
TABS,ioos:station:wmo:42048:1,2007-06-01T16:00:00Z,27.9396,-96.8429,2.0,240.544951,28.65363153,-99999.0,'11111222,11111222,99999999' 
TABS,ioos:station:wmo:42048:1,2007-06-01T16:30:00Z,27.9396,-96.8429,2.0,242.2757801,19.23859142,-99999.0,'11111222,11111222,99999999' 
TABS,ioos:station:wmo:42048:1,2007-06-01T17:00:00Z,27.9396,-96.8429,2.0,242.529278,15.0014166,-99999.0,'11111222,11111222,99999999' 
TABS,ioos:station:wmo:42048:1,2007-06-01T17:30:00Z,27.9396,-96.8429,2.0,233.8480383,13.56106559,-99999.0,'11111222,11111222,99999999' 
TABS,ioos:station:wmo:42048:1,2007-06-01T18:00:00Z,27.9396,-96.8429,2.0,247.1221217,27.88335884,-99999.0,'11111222,11111222,99999999' 
TABS,ioos:station:wmo:42048:1,2007-06-01T18:30:00Z,27.9396,-96.8429,2.0,246.4066903,22.51170806,-99999.0,'11111222,11111222,99999999' 
TABS,ioos:station:wmo:42048:1,2007-06-01T19:00:00Z,27.9396,-96.8429,2.0,255.0903489,24.9913465,-99999.0,'11111222,11111222,99999999' 
TABS,ioos:station:wmo:42048:1,2007-06-01T19:30:00Z,27.9396,-96.8429,2.0,254.7011501,19.70837639,-99999.0,'11111222,11111222,99999999' 
TABS,ioos:station:wmo:42048:1,2007-06-01T20:00:00Z,27.9396,-96.8429,2.0,260.621765,20.0682062,-99999.0,'11111222,11111222,99999999' 
TABS,ioos:station:wmo:42048:1,2007-06-01T20:30:00Z,27.9396,-96.8429,2.0,262.8090612,28.20179604,-99999.0,'11111222,11111222,99999999' 
TABS,ioos:station:wmo:42048:1,2007-06-01T21:00:00Z,27.9396,-96.8429,2.0,261.4267698,33.6762587,-99999.0,'11111222,11111222,99999999' 
TABS,ioos:station:wmo:42048:1,2007-06-01T21:30:00Z,27.9396,-96.8429,2.0,259.4004757,22.29031404,-99999.0,'11111222,11111222,99999999' 
TABS,ioos:station:wmo:42048:1,2007-06-01T22:00:00Z,27.9396,-96.8429,2.0,259.397936,29.35102213,-99999.0,'11111222,11111222,99999999' 
TABS,ioos:station:wmo:42048:1,2007-06-01T22:30:00Z,27.9396,-96.8429,2.0,253.5033178,15.14332856,-99999.0,'11111222,11111222,99999999' 
TABS,ioos:station:wmo:42048:1,2007-06-01T23:00:00Z,27.9396,-96.8429,2.0,257.4030353,18.34148304,-99999.0,'11111222,11111222,99999999' 
TABS,ioos:station:wmo:42048:1,2007-06-01T23:30:00Z,27.9396,-96.8429,2.0,249.648808,14.37742675,-99999.0,'11111222,11111222,99999999' 
TABS,ioos:station:wmo:42048:1,2007-06-02T00:00:00Z,27.9396,-96.8429,2.0,246.7349034,15.92485479,-99999.0,'11111222,11111222,99999999' 
TABS,ioos:station:wmo:42048:1,2007-06-02T00:30:00Z,27.9396,-96.8429,2.0,246.8861774,25.62710479,-99999.0,'11111222,11111222,99999999' 
TABS,ioos:station:wmo:42048:1,2007-06-02T01:00:00Z,27.9396,-96.8429,2.0,245.760039,22.04342306,-99999.0,'11111222,11111222,99999999' 
TABS,ioos:station:wmo:42048:1,2007-06-02T01:30:00Z,27.9396,-96.8429,2.0,249.5517471,27.27882879,-99999.0,'11111222,11111222,99999999' 
TABS,ioos:station:wmo:42048:1,2007-06-02T02:00:00Z,27.9396,-96.8429,2.0,249.2568955,38.79466458,-99999.0,'11111222,11111222,99999999' 
TABS,ioos:station:wmo:42048:1,2007-06-02T02:30:00Z,27.9396,-96.8429,2.0,248.5786461,39.15472513,-99999.0,'11111222,11111222,99999999' 
TABS,ioos:station:wmo:42048:1,2007-06-02T03:00:00Z,27.9396,-96.8429,2.0,248.5658524,38.20203136,-99999.0,'11111222,11111222,99999999' 
TABS,ioos:station:wmo:42048:1,2007-06-02T03:30:00Z,27.9396,-96.8429,2.0,247.173414,37.37716549,-99999.0,'11111222,11111222,99999999' 
TABS,ioos:station:wmo:42048:1,2007-06-02T04:00:00Z,27.9396,-96.8429,2.0,254.3828312,36.4038954,-99999.0,'11111222,11111222,99999999' 
TABS,ioos:station:wmo:42048:1,2007-06-02T04:30:00Z,27.9396,-96.8429,2.0,252.2053701,38.7434859,-99999.0,'11111222,11111222,99999999' 
TABS,ioos:station:wmo:42048:1,2007-06-02T05:00:00Z,27.9396,-96.8429,2.0,254.6837944,37.25306028,-99999.0,'11111222,11111222,99999999' 
TABS,ioos:station:wmo:42048:1,2007-06-02T05:30:00Z,27.9396,-96.8429,2.0,261.559908,37.95097495,-99999.0,'11111222,11111222,99999999' 
TABS,ioos:station:wmo:42048:1,2007-06-02T06:00:00Z,27.9396,-96.8429,2.0,255.9929366,37.5978776,-99999.0,'11111222,11111222,99999999' 
TABS,ioos:station:wmo:42048:1,2007-06-02T06:30:00Z,27.9396,-96.8429,2.0,262.1266173,37.81645145,-99999.0,'11111222,11111222,99999999' 
TABS,ioos:station:wmo:42048:1,2007-06-02T07:00:00Z,27.9396,-96.8429,2.0,256.221921,34.93518713,-99999.0,'11111222,11111222,99999999' 
TABS,ioos:station:wmo:42048:1,2007-06-02T07:30:00Z,27.9396,-96.8429,2.0,255.2705891,34.10057624,-99999.0,'11111222,11111222,99999999' 
TABS,ioos:station:wmo:42048:1,2007-06-02T08:00:00Z,27.9396,-96.8429,2.0,249.2736609,35.51863314,-99999.0,'11111222,11111222,99999999' 
TABS,ioos:station:wmo:42048:1,2007-06-02T08:30:00Z,27.9396,-96.8429,2.0,249.0142658,31.55283822,-99999.0,'11111222,11111222,99999999' 
TABS,ioos:station:wmo:42048:1,2007-06-02T09:00:00Z,27.9396,-96.8429,2.0,244.6692525,32.79284221,-99999.0,'11111222,11111222,99999999' 
TABS,ioos:station:wmo:42048:1,2007-06-02T09:30:00Z,27.9396,-96.8429,2.0,253.6399984,34.58005205,-99999.0,'11111222,11111222,99999999' 
TABS,ioos:station:wmo:42048:1,2007-06-02T10:00:00Z,27.9396,-96.8429,2.0,254.0965051,33.50225067,-99999.0,'11111222,11111222,99999999' 
TABS,ioos:station:wmo:42048:1,2007-06-02T10:30:00Z,27.9396,-96.8429,2.0,253.3644988,30.80945959,-99999.0,'11111222,11111222,99999999' 
TABS,ioos:station:wmo:42048:1,2007-06-02T11:00:00Z,27.9396,-96.8429,2.0,249.227373,32.87709233,-99999.0,'11111222,11111222,99999999' 
TABS,ioos:station:wmo:42048:1,2007-06-02T11:30:00Z,27.9396,-96.8429,2.0,251.8315261,27.83783217,-99999.0,'11111222,11111222,99999999' 
TABS,ioos:station:wmo:42048:1,2007-06-02T12:00:00Z,27.9396,-96.8429,2.0,247.7538812,29.4521663,-99999.0,'11111222,11111222,99999999' 
TABS,ioos:station:wmo:42048:1,2007-06-02T12:30:00Z,27.9396,-96.8429,2.0,253.9433409,26.97217084,-99999.0,'11111222,11111222,99999999' 
TABS,ioos:station:wmo:42048:1,2007-06-02T13:00:00Z,27.9396,-96.8429,2.0,253.0838586,28.38825814,-99999.0,'11111222,11111222,99999999' 
TABS,ioos:station:wmo:42048:1,2007-06-02T13:30:00Z,27.9396,-96.8429,2.0,247.5564697,28.18474942,-99999.0,'11111222,11111222,99999999' 
TABS,ioos:station:wmo:42048:1,2007-06-02T14:00:00Z,27.9396,-96.8429,2.0,250.1681472,27.11826137,-99999.0,'11111222,11111222,99999999' 
TABS,ioos:station:wmo:42048:1,2007-06-02T14:30:00Z,27.9396,-96.8429,2.0,252.9106271,27.59848728,-99999.0,'11111222,11111222,99999999' 
TABS,ioos:station:wmo:42048:1,2007-06-02T15:00:00Z,27.9396,-96.8429,2.0,254.211054,26.09448409,-99999.0,'11111222,11111222,99999999' 
TABS,ioos:station:wmo:42048:1,2007-06-02T15:30:00Z,27.9396,-96.8429,2.0,250.0647561,25.37015964,-99999.0,'11111222,11111222,99999999' 
TABS,ioos:station:wmo:42048:1,2007-06-02T16:00:00Z,27.9396,-96.8429,2.0,249.9896694,23.70073839,-99999.0,'11111222,11111222,99999999' 
TABS,ioos:station:wmo:42048:1,2007-06-02T16:30:00Z,27.9396,-96.8429,2.0,247.2292534,25.47547252,-99999.0,'11111222,11111222,99999999' 
TABS,ioos:station:wmo:42048:1,2007-06-02T17:00:00Z,27.9396,-96.8429,2.0,255.1226232,26.44650639,-99999.0,'11111222,11111222,99999999' 
TABS,ioos:station:wmo:42048:1,2007-06-02T17:30:00Z,27.9396,-96.8429,2.0,256.2360405,24.46242016,-99999.0,'11111222,11111222,99999999' 
TABS,ioos:station:wmo:42048:1,2007-06-02T18:00:00Z,27.9396,-96.8429,2.0,257.8904596,25.02685358,-99999.0,'11111222,11111222,99999999' 
TABS,ioos:station:wmo:42048:1,2007-06-03T10:00:00Z,27.9396,-96.8429,2.0,78.49578437,8.67426654,-99999.0,'11133222,11111222,99999999' 
TABS,ioos:station:wmo:42048:1,2007-06-03T10:30:00Z,27.9396,-96.8429,2.0,94.58608817,11.25603838,-99999.0,'11111222,11111222,99999999' 
TABS,ioos:station:wmo:42048:1,2007-06-03T11:00:00Z,27.9396,-96.8429,2.0,91.10556821,11.40212261,-99999.0,'11111222,11111222,99999999' 
TABS,ioos:station:wmo:42048:1,2007-06-03T11:30:00Z,27.9396,-96.8429,2.0,94.57561381,13.41274767,-99999.0,'11111222,11111222,99999999' 
TABS,ioos:station:wmo:42048:1,2007-06-03T12:00:00Z,27.9396,-96.8429,2.0,86.94527678,16.5134642,-99999.0,'11111222,11111222,99999999' 
TABS,ioos:station:wmo:42048:1,2007-06-03T12:30:00Z,27.9396,-96.8429,2.0,85.73779251,18.02986411,-99999.0,'11111222,11111222,99999999' 
TABS,ioos:station:wmo:42048:1,2007-06-03T13:00:00Z,27.9396,-96.8429,2.0,89.78506557,18.6601313,-99999.0,'11111222,11111222,99999999' 
TABS,ioos:station:wmo:42048:1,2007-06-03T13:30:00Z,27.9396,-96.8429,2.0,81.74425831,17.41042504,-99999.0,'11111222,11111222,99999999' 
TABS,ioos:station:wmo:42048:1,2007-06-03T14:00:00Z,27.9396,-96.8429,2.0,86.45480108,22.96394565,-99999.0,'11111222,11111222,99999999' 
TABS,ioos:station:wmo:42048:1,2007-06-03T14:30:00Z,27.9396,-96.8429,2.0,88.46002965,22.69819817,-99999.0,'11111222,11111222,99999999' 
TABS,ioos:station:wmo:42048:1,2007-06-03T15:00:00Z,27.9396,-96.8429,2.0,90.28493248,24.13029838,-99999.0,'11111222,11111222,99999999' 
TABS,ioos:station:wmo:42048:1,2007-06-03T15:30:00Z,27.9396,-96.8429,2.0,90.54228827,24.30108845,-99999.0,'11111222,11111222,99999999' 
TABS,ioos:station:wmo:42048:1,2007-06-03T16:00:00Z,27.9396,-96.8429,2.0,88.30509989,26.37153769,-99999.0,'11111222,11111222,99999999' 
TABS,ioos:station:wmo:42048:1,2007-06-03T16:30:00Z,27.9396,-96.8429,2.0,91.35499368,27.48768633,-99999.0,'11111222,11111222,99999999' 
TABS,ioos:station:wmo:42048:1,2007-06-03T17:00:00Z,27.9396,-96.8429,2.0,96.7794044,26.9383537,-99999.0,'11111222,11111222,99999999' 
TABS,ioos:station:wmo:42048:1,2007-06-03T17:30:00Z,27.9396,-96.8429,2.0,96.27831497,27.61562782,-99999.0,'11111222,11111222,99999999' 
TABS,ioos:station:wmo:42048:1,2007-06-03T18:00:00Z,27.9396,-96.8429,2.0,100.966288,25.17980341,-99999.0,'11111222,11111222,99999999' 
TABS,ioos:station:wmo:42048:1,2007-06-03T18:30:00Z,27.9396,-96.8429,2.0,92.75290871,25.60955486,-99999.0,'11111222,11111222,99999999' 
TABS,ioos:station:wmo:42048:1,2007-06-03T19:00:00Z,27.9396,-96.8429,2.0,93.37522874,26.83655157,-99999.0,'11111222,11111222,99999999' 
TABS,ioos:station:wmo:42048:1,2007-06-03T19:30:00Z,27.9396,-96.8429,2.0,92.64034651,24.09558051,-99999.0,'11111222,11111222,99999999' 
TABS,ioos:station:wmo:42048:1,2007-06-03T20:00:00Z,27.9396,-96.8429,2.0,83.36076397,27.50445055,-99999.0,'11111222,11111222,99999999' 
TABS,ioos:station:wmo:42048:1,2007-06-03T20:30:00Z,27.9396,-96.8429,2.0,86.62712033,26.17534145,-99999.0,'11111222,11111222,99999999' 
TABS,ioos:station:wmo:42048:1,2007-06-03T21:00:00Z,27.9396,-96.8429,2.0,83.40410073,23.50558444,-99999.0,'11111222,11111222,99999999' 
TABS,ioos:station:wmo:42048:1,2007-06-03T21:30:00Z,27.9396,-96.8429,2.0,75.90643638,24.22932108,-99999.0,'11111222,11111222,99999999' 
TABS,ioos:station:wmo:42048:1,2007-06-03T22:00:00Z,27.9396,-96.8429,2.0,80.51604351,26.09669711,-99999.0,'11111222,11111222,99999999' 
TABS,ioos:station:wmo:42048:1,2007-06-03T22:30:00Z,27.9396,-96.8429,2.0,75.86327078,23.50173823,-99999.0,'11111222,11111222,99999999' 
TABS,ioos:station:wmo:42048:1,2007-06-03T23:00:00Z,27.9396,-96.8429,2.0,72.65882167,24.02187545,-99999.0,'11111222,11111222,99999999' 
TABS,ioos:station:wmo:42048:1,2007-06-03T23:30:00Z,27.9396,-96.8429,2.0,75.87532471,28.27483687,-99999.0,'11111222,11111222,99999999' 
TABS,ioos:station:wmo:42048:1,2007-06-04T00:00:00Z,27.9396,-96.8429,2.0,68.7160881,28.37540484,-99999.0,'11111222,11111222,99999999' 
TABS,ioos:station:wmo:42048:1,2007-06-04T00:30:00Z,27.9396,-96.8429,2.0,61.93736594,27.54882393,-99999.0,'11111222,11111222,99999999' 
TABS,ioos:station:wmo:42048:1,2007-06-04T01:00:00Z,27.9396,-96.8429,2.0,60.7631526,26.86201779,-99999.0,'11111222,11111222,99999999' 
TABS,ioos:station:wmo:42048:1,2007-06-04T01:30:00Z,27.9396,-96.8429,2.0,54.93479154,29.46861551,-99999.0,'11111222,11111222,99999999' 
TABS,ioos:station:wmo:42048:1,2007-06-04T02:00:00Z,27.9396,-96.8429,2.0,53.63587063,30.13917384,-99999.0,'11111222,11111222,99999999' 
TABS,ioos:station:wmo:42048:1,2007-06-04T02:30:00Z,27.9396,-96.8429,2.0,49.94671572,29.60368389,-99999.0,'11111222,11111222,99999999' 
TABS,ioos:station:wmo:42048:1,2007-06-04T03:00:00Z,27.9396,-96.8429,2.0,49.15745528,32.18734223,-99999.0,'11111222,11111222,99999999' 
TABS,ioos:station:wmo:42048:1,2007-06-04T03:30:00Z,27.9396,-96.8429,2.0,52.52125288,34.24993431,-99999.0,'11111222,11111222,99999999' 
TABS,ioos:station:wmo:42048:1,2007-06-04T04:00:00Z,27.9396,-96.8429,2.0,50.29593356,37.61601388,-99999.0,'11111222,11111222,99999999' 
TABS,ioos:station:wmo:42048:1,2007-06-04T04:30:00Z,27.9396,-96.8429,2.0,49.67138778,37.16169264,-99999.0,'11111222,11111222,99999999' 
TABS,ioos:station:wmo:42048:1,2007-06-04T05:00:00Z,27.9396,-96.8429,2.0,51.78555184,38.18251432,-99999.0,'11111222,11111222,99999999' 
TABS,ioos:station:wmo:42048:1,2007-06-04T05:30:00Z,27.9396,-96.8429,2.0,52.40067783,41.9413996,-99999.0,'11111222,11111222,99999999' 
TABS,ioos:station:wmo:42048:1,2007-06-04T06:00:00Z,27.9396,-96.8429,2.0,51.98731957,41.21219844,-99999.0,'11111222,11111222,99999999' 
TABS,ioos:station:wmo:42048:1,2007-06-04T06:30:00Z,27.9396,-96.8429,2.0,55.82763227,43.81454781,-99999.0,'11111222,11111222,99999999' 
TABS,ioos:station:wmo:42048:1,2007-06-04T07:00:00Z,27.9396,-96.8429,2.0,62.63486008,45.79466563,-99999.0,'11111222,11111222,99999999' 
TABS,ioos:station:wmo:42048:1,2007-06-04T07:30:00Z,27.9396,-96.8429,2.0,75.03343981,44.06483065,-99999.0,'11111222,11111222,99999999' 
TABS,ioos:station:wmo:42048:1,2007-06-04T08:00:00Z,27.9396,-96.8429,2.0,84.88247561,38.45328204,-99999.0,'11111222,11111222,99999999' 
TABS,ioos:station:wmo:42048:1,2007-06-04T08:30:00Z,27.9396,-96.8429,2.0,88.53282008,36.32190799,-99999.0,'11111222,11111222,99999999' 
TABS,ioos:station:wmo:42048:1,2007-06-04T09:00:00Z,27.9396,-96.8429,2.0,87.7522913,34.16628748,-99999.0,'11111222,11111222,99999999' 
TABS,ioos:station:wmo:42048:1,2007-06-04T09:30:00Z,27.9396,-96.8429,2.0,91.21848556,31.50712459,-99999.0,'11111222,11111222,99999999' 
TABS,ioos:station:wmo:42048:1,2007-06-04T10:00:00Z,27.9396,-96.8429,2.0,85.48193918,25.77007955,-99999.0,'11111222,11111222,99999999' 
TABS,ioos:station:wmo:42048:1,2007-06-04T10:30:00Z,27.9396,-96.8429,2.0,79.98693658,25.99596892,-99999.0,'11111222,11111222,99999999' 
TABS,ioos:station:wmo:42048:1,2007-06-04T11:00:00Z,27.9396,-96.8429,2.0,70.70650447,23.21372439,-99999.0,'11111222,11111222,99999999' 
TABS,ioos:station:wmo:42048:1,2007-06-04T11:30:00Z,27.9396,-96.8429,2.0,66.6282722,24.32594089,-99999.0,'11111222,11111222,99999999' 
TABS,ioos:station:wmo:42048:1,2007-06-04T12:00:00Z,27.9396,-96.8429,2.0,65.71953006,25.2429099,-99999.0,'11111222,11111222,99999999' 
TABS,ioos:station:wmo:42048:1,2007-06-04T12:30:00Z,27.9396,-96.8429,2.0,69.90779168,26.46035903,-99999.0,'11111222,11111222,99999999' 
TABS,ioos:station:wmo:42048:1,2007-06-04T13:00:00Z,27.9396,-96.8429,2.0,73.86073141,31.65767048,-99999.0,'11111222,11111222,99999999' 
TABS,ioos:station:wmo:42048:1,2007-06-04T13:30:00Z,27.9396,-96.8429,2.0,78.47886674,34.04599242,-99999.0,'11111222,11111222,99999999' 
TABS,ioos:station:wmo:42048:1,2007-06-04T14:00:00Z,27.9396,-96.8429,2.0,82.05580834,35.7430217,-99999.0,'11111222,11111222,99999999' 
TABS,ioos:station:wmo:42048:1,2007-06-04T14:30:00Z,27.9396,-96.8429,2.0,82.62720616,34.9892855,-99999.0,'11111222,11111222,99999999' 
TABS,ioos:station:wmo:42048:1,2007-06-04T15:00:00Z,27.9396,-96.8429,2.0,87.37955716,29.09041939,-99999.0,'11111222,11111222,99999999' 
TABS,ioos:station:wmo:42048:1,2007-06-04T15:30:00Z,27.9396,-96.8429,2.0,79.80954666,30.91772631,-99999.0,'11111222,11111222,99999999' 
TABS,ioos:station:wmo:42048:1,2007-06-04T16:00:00Z,27.9396,-96.8429,2.0,82.67909119,35.54980309,-99999.0,'11111222,11111222,99999999' 
TABS,ioos:station:wmo:42048:1,2007-06-04T16:30:00Z,27.9396,-96.8429,2.0,84.46858158,33.0941037,-99999.0,'11111222,11111222,99999999' 
TABS,ioos:station:wmo:42048:1,2007-06-04T17:00:00Z,27.9396,-96.8429,2.0,79.61204552,32.05540984,-99999.0,'11111222,11111222,99999999' 
TABS,ioos:station:wmo:42048:1,2007-06-04T17:30:00Z,27.9396,-96.8429,2.0,78.12788891,28.5813803,-99999.0,'11111222,11111222,99999999' 
TABS,ioos:station:wmo:42048:1,2007-06-04T18:00:00Z,27.9396,-96.8429,2.0,79.06467094,29.09837281,-99999.0,'11111222,11111222,99999999' 
TABS,ioos:station:wmo:42048:1,2007-06-04T18:30:00Z,27.9396,-96.8429,2.0,82.50356346,25.0642255,-99999.0,'11111222,11111222,99999999' 
TABS,ioos:station:wmo:42048:1,2007-06-04T19:00:00Z,27.9396,-96.8429,2.0,76.10217099,25.10493577,-99999.0,'11111222,11111222,99999999' 
TABS,ioos:station:wmo:42048:1,2007-06-04T19:30:00Z,27.9396,-96.8429,2.0,67.62402244,22.77482162,-99999.0,'11111222,11111222,99999999' 
TABS,ioos:station:wmo:42048:1,2007-06-04T20:00:00Z,27.9396,-96.8429,2.0,65.59345099,16.50494774,-99999.0,'11111222,11111222,99999999' 
TABS,ioos:station:wmo:42048:1,2007-06-04T20:30:00Z,27.9396,-96.8429,2.0,61.65278156,16.68019185,-99999.0,'11111222,11111222,99999999' 
TABS,ioos:station:wmo:42048:1,2007-06-04T21:00:00Z,27.9396,-96.8429,2.0,51.66984686,23.62167225,-99999.0,'11111222,11111222,99999999' 
TABS,ioos:station:wmo:42048:1,2007-06-04T21:30:00Z,27.9396,-96.8429,2.0,35.18923662,32.86614063,-99999.0,'11111222,11111222,99999999' 
TABS,ioos:station:wmo:42048:1,2007-06-04T22:00:00Z,27.9396,-96.8429,2.0,38.5170467,30.06041916,-99999.0,'11111222,11111222,99999999' 
TABS,ioos:station:wmo:42048:1,2007-06-04T22:30:00Z,27.9396,-96.8429,2.0,30.61043685,33.91620557,-99999.0,'11111222,11111222,99999999' 
TABS,ioos:station:wmo:42048:1,2007-06-04T23:00:00Z,27.9396,-96.8429,2.0,29.4512199,38.4599558,-99999.0,'11111222,11111222,99999999' 
TABS,ioos:station:wmo:42048:1,2007-06-04T23:30:00Z,27.9396,-96.8429,2.0,34.9029255,36.29939118,-99999.0,'11111222,11111222,99999999' 
TABS,ioos:station:wmo:42048:1,2007-06-05T00:00:00Z,27.9396,-96.8429,2.0,31.58815363,40.45377238,-99999.0,'11111222,11111222,99999999' 
TABS,ioos:station:wmo:42048:1,2007-06-05T00:30:00Z,27.9396,-96.8429,2.0,28.65214007,30.82451784,-99999.0,'11111222,11111222,99999999' 
TABS,ioos:station:wmo:42048:1,2007-06-05T01:00:00Z,27.9396,-96.8429,2.0,32.69086603,40.23297777,-99999.0,'11111222,11111222,99999999' 
TABS,ioos:station:wmo:42048:1,2007-06-05T01:30:00Z,27.9396,-96.8429,2.0,27.00903015,31.75311796,-99999.0,'11111222,11111222,99999999' 
TABS,ioos:station:wmo:42048:1,2007-06-05T02:00:00Z,27.9396,-96.8429,2.0,26.72614192,47.76260043,-99999.0,'11111222,11111222,99999999' 
TABS,ioos:station:wmo:42048:1,2007-06-05T02:30:00Z,27.9396,-96.8429,2.0,26.56519952,47.29283772,-99999.0,'11111222,11111222,99999999' 
TABS,ioos:station:wmo:42048:1,2007-06-05T03:00:00Z,27.9396,-96.8429,2.0,20.61988479,48.44336074,-99999.0,'11111222,11111222,99999999' 
TABS,ioos:station:wmo:42048:1,2007-06-05T03:30:00Z,27.9396,-96.8429,2.0,24.91294499,53.20028759,-99999.0,'11111222,11111222,99999999' 
TABS,ioos:station:wmo:42048:1,2007-06-05T04:00:00Z,27.9396,-96.8429,2.0,28.38372656,53.4107873,-99999.0,'11111222,11111222,99999999' 
TABS,ioos:station:wmo:42048:1,2007-06-05T04:30:00Z,27.9396,-96.8429,2.0,29.48837624,56.2118653,-99999.0,'11111222,11111222,99999999' 
TABS,ioos:station:wmo:42048:1,2007-06-05T05:00:00Z,27.9396,-96.8429,2.0,33.72225841,54.52426432,-99999.0,'11111222,11111222,99999999' 
TABS,ioos:station:wmo:42048:1,2007-06-05T05:30:00Z,27.9396,-96.8429,2.0,34.49193706,56.49065144,-99999.0,'11111222,11111222,99999999' 
TABS,ioos:station:wmo:42048:1,2007-06-05T06:00:00Z,27.9396,-96.8429,2.0,33.46348896,56.07508181,-99999.0,'11111222,11111222,99999999' 
TABS,ioos:station:wmo:42048:1,2007-06-05T06:30:00Z,27.9396,-96.8429,2.0,34.75145928,58.70012351,-99999.0,'11111222,11111222,99999999' 
TABS,ioos:station:wmo:42048:1,2007-06-05T07:00:00Z,27.9396,-96.8429,2.0,35.9442487,57.68352971,-99999.0,'11111222,11111222,99999999' 
TABS,ioos:station:wmo:42048:1,2007-06-05T07:30:00Z,27.9396,-96.8429,2.0,36.30877479,59.00683096,-99999.0,'11111222,11111222,99999999' 